Regional Weather Roundup
Issued by NWS

Home | Current Version | Previous Version | Text Only | Print | Product List | Glossary Off
Versions: 1 2 3 4 5 6 7 8 9 10 11 12 13 14 15 16 17 18 19 20 21 22 23 24 25 26 27 28 29 30 31 32 33 34 35 36 37 38 39 40 41 42 43 44 45 46 47 48 49 50

000
ASUS45 KTFX 221419
RWRMT
MONTANA HOURLY WEATHER ROUNDUP
NATIONAL WEATHER SERVICE GREAT FALLS MT
719 AM MST SAT NOV 22 2014

NOTE: "FAIR" INDICATES FEW OR NO CLOUDS BELOW 12000 FEET WITH NO
SIGNIFICANT WEATHER AND/OR OBSTRUCTIONS TO VISIBILITY.

* THESE STATIONS ARE NOT UNDER NWS QUALITY CONTROL. THEY DO NOT
   REPORT WEATHER SUCH AS PRECIPITATION OR FOG.

MTZ001>007-043-221500-
WEST OF THE DIVIDE
CITY           SKY/WX    TMP DP  RH WIND       PRES   REMARKS
KALISPELL      MOCLDY    37  34  89 SW7       29.37R WCI  32
MISSOULA       LGT RAIN  36  36 100 SE5       29.48R WCI  32
BUTTE          LGT RAIN  34  32  92 NW5       29.47F WCI  29
MULLAN PASS    LGT SNOW  28  27  96 W12G25    29.42R WCI  18
* ESSEX        N/A       36  35  96 S2         N/A
* EUREKA APT   CLOUDY    41  32  70 S10       29.35R
* HAMILTON APT CLOUDY    41  36  82 S9        29.50S
* LIBBY APT    PTCLDY    43  28  56 S6        29.41R
* LINCOLN      N/A       37  34  89 W4G10      N/A
* LOOKOUT PASS N/A       34  29  82 SE8G14     N/A   WCI  27
* POLSON       N/A       36  35  96 S3G9       N/A
* RONAN APT    PTCLDY    39  36  89 S8         N/A   WCI  33
* SEELEY LAKE  N/A       33  32  96 E1         N/A
* THOMP F APT  PTCLDY    28  26  92 E8G18      N/A   WCI  20
* YAAK HILL    N/A       40  29  65 SE8G16     N/A   WCI  35
$$

MTZ008-052>055-221500-
SOUTHWEST MONTANA
CITY           SKY/WX    TMP DP  RH WIND       PRES   REMARKS
BOZEMAN        CLOUDY    37  30  76 E6        29.45F WCI  32
DILLON         PTCLDY    39  28  65 S16       29.47F WCI  30
* W YELLOWSTON CLOUDY    28  27  96 SW7G15     N/A   WCI  21
* ENNIS APT    MOCLDY    41  27  58 SE30G37    N/A
* THREE FORKS  CLOUDY    45  36  71 SW23G33    N/A
* BOULDER HILL N/A       34  31  89 SW13       N/A   WCI  25
* MONIDA PASS  N/A       27  27 100 SE27G35    N/A   WCI  11
* RAYNOLDS PAS N/A       30  13  49 S12G17     N/A   WCI  20
* WHITEHALL    N/A       41  33  73 W12G24     N/A
* WISE RIVER   N/A       32  31  96 N3         N/A
$$

MTZ009>010-012-014-046-048-049-054-221500-
EAST SLOPES AND CENTRAL MONTANA
CITY           SKY/WX    TMP DP  RH WIND       PRES   REMARKS
CUT BANK       CLEAR     39  30  70 W24G32    29.20S WCI  28
GREAT FALLS    PTCLDY    45  34  65 SW28G38   29.27F
HELENA         LGT RAIN  43  36  76 S12       29.41R
MALMSTROM AFB  PTCLDY    43  34  71 S15       29.31S
* CONRAD       PTCLDY    39  36  89 SE13G18    N/A   WCI  31
* DEARBORN     N/A       48  34  59 S18G29     N/A
* EAST GLACIER N/A       33  31  92 W30G44     N/A   WCI  19
* MONARCH      N/A       39  26  60 SW20G32    N/A   WCI  29
* PENDROY      N/A       37  33  85 SW6G12     N/A   WCI  32
* SAINT MARY   N/A       37  28  70 SW12G31    N/A   WCI  29
* SWEET GRASS  N/A       40  32  73 SW29G37    N/A   WCI  29
* WHITE SULPH  N/A       36  32  85 S6G14      N/A   WCI  31
$$

MTZ011-013-016-021-035-040-045-047-050-051-221500-
NORTH CENTRAL MONTANA
CITY           SKY/WX    TMP DP  RH WIND       PRES   REMARKS
HAVRE          CLOUDY    45  34  65 SW24G31   29.18F
LEWISTOWN      CLOUDY    45  32  60 SW22G29   29.35S
* N BAR RANCH  CLOUDY    48  30  50 W20G26    29.34R
* CHINOOK      MOCLDY    34  30  85 E9        29.20F WCI  27
* FORT BENTON  MOCLDY    48  32  54 SW12G25   29.27R
* CHESTER      N/A       41  33  73 SW14G28    N/A
* DENTON       N/A       44  30  58 SW9        N/A
* GEYSER       N/A       46  27  48 SW24G37    N/A
* JUDITH GAP   N/A       40  35  82 SW30G36    N/A   WCI  28
* LOMA         N/A       48  33  56 SW29G36    N/A
$$

MTZ017>020-022>027-061-062-221500-
NORTHEAST MONTANA
CITY           SKY/WX    TMP DP  RH WIND       PRES   REMARKS
GLASGOW        CLOUDY    36  28  73 SE15      29.31F WCI  27
GLENDIVE       CLOUDY    32  27  82 CALM      29.42F
JORDAN         MOCLDY    37  27  67 SW8       29.33F WCI  31
SIDNEY         CLOUDY    30  27  89 SE6       29.42F WCI  24
WOLF POINT     CLOUDY    32  28  85 NE5       29.37F WCI  27
* BEAVER HILL  N/A       39  27  62 SE12       N/A   WCI  32
* CIRCLE       N/A       38  29  70 N/A        N/A
* LINDSAY DVD  N/A       32  26  79 SE2        N/A
* NAVAJO       N/A       31  27  85 S4         N/A
* PLENTYWOOD A CLOUDY    30  28  92 SE8       29.37F WCI  22
* POPLAR APT   CLOUDY    30  28  92 N/A       29.37F
* SACO         N/A       32  29  89 NE9        N/A   WCI  24
* SCOBEY APT   CLOUDY    30  23  75 SE7        N/A   WCI  23
$$

MTZ028>042-056>058-221500-
SOUTHCENTRAL AND SOUTHEAST MONTANA
CITY           SKY/WX    TMP DP  RH WIND       PRES   REMARKS
BAKER          CLOUDY    30  25  82 E7        29.44F WCI  23
BILLINGS       CLOUDY    45  27  49 SW15      29.41F
LIVINGSTON     CLOUDY    43  28  56 SW46G68   29.40R
MILES CITY     CLOUDY    34  27  76 S16       29.40F WCI  24
* BIG TIMBER A CLOUDY    43  30  60 W16G22    29.44S
* FORSYTH APT  PTCLDY    36  28  73 CALM      29.39F
* LAUREL APT   CLOUDY    45  23  42 SW9        N/A
* ALZADA       N/A       36  23  59 SE2        N/A
* HYSHAM       N/A       44  19  37 W9G20      N/A
* LAME DEER    N/A       39  19  45 S11        N/A   WCI  32
* REED POINT   N/A       48  28  46 W16G24     N/A
* ROSCOE HILL  N/A       41  19  41 S31G46     N/A
$$

REGIONAL REPORTS...DAKOTAS
CITY           SKY/WX    TMP DP  RH WIND       PRES   REMARKS
WILLISTON      CLOUDY    30  27  89 W3        29.42F
DICKINSON      CLOUDY    34  25  70 S10       29.43F WCI  26
BEACH          CLOUDY    32  27  82 S14       29.42F WCI  22
CROSBY         CLEAR     32  32 100 S13       29.40F WCI  22
TIOGA          FAIR      25  25 100 E3        29.45F
BISMARCK       PTCLDY    25  21  85 CALM      29.54F
GRAND FORKS    FAIR      19  16  88 S6        29.60R WCI  11
FARGO          CLEAR     23  19  85 S5        29.64S WCI  16
BUFFALO SD     CLOUDY    30  23  75 SW3       29.41S
RAPID CITY     MOCLDY    45  25  45 W12G21    29.51F
$$

REGIONAL REPORTS...WYOMING/IDAHO/WASHINGTON
CITY           SKY/WX    TMP DP  RH WIND       PRES   REMARKS
GILLETTE       MOCLDY    37  25  62 SW16G26   29.49R WCI  28
SHERIDAN       PTCLDY    28  21  75 N6        29.45F WCI  21
CODY           MOCLDY    43  27  53 SW28G49   29.50F
YELLOWSTONE LA CLOUDY    27  25  92 VRB5      29.68F WCI  21
SALMON         CLOUDY    41  34  76 S17       29.50F
MULLAN PASS    LGT SNOW  28  27  96 W12G25    29.42S WCI  18
SAND POINT     CLOUDY    37  32  82 W12G17    29.47R WCI  29
SPOKANE        PTCLDY    34  30  85 SW18      29.53R WCI  23
$$

REGIONAL REPORTS...ALBERTA
CITY           SKY/WX    TMP DP  RH WIND       PRES   REMARKS
CALGARY        MOCLDY    39  25  57 W12G17    29.02F WCI  32
LETHBRIDGE     PTCLDY    37  30  76 SW15      29.11R WCI  28
MEDICINE HAT   MOCLDY    43  34  71 S20G29    29.08F
EDMONTON       LGT SNOW  34  30  85 E15       29.09S WCI  24
WATERTON GATE  N/A       37  27  67 SW26G38    N/A   WCI  25
CARDSTON       N/A       39  27  62 W12G21     N/A   WCI  32
MILK RIVER     N/A       39  32  76 SW17G24    N/A   WCI  30
$$

REGIONAL REPORTS...SASKATCHEWAN
CITY           SKY/WX    TMP DP  RH WIND       PRES   REMARKS
SWIFT CURRENT  CLOUDY    34  30  85 S17G23    29.20F WCI  23
REGINA         FOG       32  32 100 SE15G23   29.36F VSB 1    WCI  22
VAL MARIE      N/A       34  30  85 SE9        N/A   WCI  27
ASSINIBOIA     N/A       32  28  85 SE7        N/A   WCI  25
CORONACH       N/A       30  28  92 SE7        N/A   WCI  23

$$




USA.gov is the U.S. government's official web portal to all federal, state and local government web resources and services.